Location: Unspecified
(0.0000°N, 0.0000°E)
Time: 16:36:57
(UTC+00:00)

Amateur Radio Satellites - All Passes

Search period start: 28 August 2016 16:06
Search period end: 29 August 2016 16:06
Location: Unspecified, 0.0000°N, 0.0000°E

Satellite Date Start Highest point End Downlink Frequencies (MHz)
Time Altitude Azimuth
YUBILEINY 28 Aug 16:12:58 16:19:11 22° 87° (E) 16:25:22 435.215
CUBESAT XI-V 28 Aug 16:22:10 16:26:23 32° 102° (ESE) 16:30:34 437.345
HORYU 2 28 Aug 16:24:52 16:29:11 46° 78° (ENE) 16:33:28 437.375
KKS-1 28 Aug 16:27:29 16:30:37 19° 282° (WNW) 16:33:46 437.445
MOZHAYETS 4 28 Aug 16:40:46 16:41:23 10° 282° (WNW) 16:42:00
SRMSAT 28 Aug 16:55:35 16:59:37 19° 15° (NNE) 17:03:40 437.500
Cubesat XI-IV 28 Aug 16:59:44 17:02:50 16° 77° (ENE) 17:05:55 437.490
STARS 28 Aug 17:01:54 17:04:32 16° 282° (WNW) 17:07:11 437.465
BRITE-PL 28 Aug 17:02:36 17:06:44 41° 78° (ENE) 17:11:08 437.365/2234.400
JUGNU 28 Aug 17:05:19 17:11:08 66° 21° (NNE) 17:16:56 437.505
NOAA 15 28 Aug 17:08:54 17:13:22 28° 77° (ENE) 17:17:48 137.62
CUTE-I 28 Aug 17:10:25 17:14:27 22° 77° (ENE) 17:18:27 437.470
Cosmos 2491 28 Aug 17:20:46 17:29:30 90° 99° (E) 17:38:13 435.465 / 435.565
ISS 28 Aug 17:39:58 17:42:53 30° 234° (SW) 17:45:47 145.825
Cosmos 2504 28 Aug 17:52:55 17:59:24 37° 87° (E) 18:06:10 435.465 / 435.565
NOAA 18 28 Aug 17:55:13 18:00:44 66° 76° (ENE) 18:06:13 137.9125
LilacSat-2 28 Aug 17:58:54 18:02:46 78° 257° (WSW) 18:06:38 437.200
STRAND 1 28 Aug 18:01:01 18:04:07 16° 103° (ESE) 18:07:13 437.568
CUBESAT XI-V 28 Aug 18:01:38 18:03:28 12° 282° (WNW) 18:05:18 437.345
YUBILEINY 28 Aug 18:07:25 18:15:34 46° 267° (W) 18:23:46 435.215
GOMX 1 28 Aug 18:12:17 18:16:51 63° 259° (W) 18:21:44 467.674
DOVE 4 28 Aug 18:14:52 18:19:33 50° 78° (ENE) 18:24:26 437.250
BEESAT 3 28 Aug 18:28:34 18:30:22 13° 68° (ENE) 18:32:10 437.485
Cubesat XI-IV 28 Aug 18:37:49 18:42:37 34° 257° (WSW) 18:47:25 437.490
SRMSAT 28 Aug 18:43:31 18:49:08 44° 20° (NNE) 18:54:47 437.500
NOAA 15 28 Aug 18:49:25 18:52:51 18° 257° (WSW) 18:56:18 137.62
CUTE-I 28 Aug 18:49:56 18:54:13 24° 257° (WSW) 18:58:28 437.470
CINEMA 3 28 Aug 18:50:20 18:54:37 30° 78° (ENE) 18:58:56 145.822/145.860
JUGNU 28 Aug 18:54:36 19:00:10 44° 200° (SSW) 19:05:44 437.505
HO-68 28 Aug 18:59:56 19:06:29 38° 75° (ENE) 19:12:59 435.675
SEEDS 28 Aug 19:00:23 19:02:40 14° 79° (ENE) 19:04:58 437.485
CANX-2 28 Aug 19:21:41 19:25:52 62° 78° (ENE) 19:30:00 2200.000
AIST 1 28 Aug 19:23:32 19:26:13 16° 86° (E) 19:28:53
CUTE 1.7 + AOD 2 28 Aug 19:27:37 19:31:48 62° 79° (E) 19:35:56 437.475
AAUSAT CUBESAT 2 28 Aug 19:28:44 19:31:25 17° 79° (ENE) 19:34:03 437.432
COMPASS 1 28 Aug 19:36:38 19:40:18 31° 79° (ENE) 19:43:56 437.405
STRAND 1 28 Aug 19:38:36 19:43:00 30° 282° (WNW) 19:47:27 437.568
Cosmos 2504 28 Aug 19:47:23 19:52:28 21° 266° (W) 19:57:45 435.465 / 435.565
BEESAT 2 28 Aug 19:47:28 19:51:26 82° 68° (ENE) 19:55:24 435.950
BEESAT 3 28 Aug 20:04:46 20:07:46 21° 248° (WSW) 20:10:47 437.485
Oscar 11 28 Aug 20:17:44 20:21:24 27° 78° (ENE) 20:25:02 145.826/435.025
FUNcube-1 28 Aug 20:25:52 20:30:01 34° 78° (ENE) 20:34:04 145.935
CINEMA 3 28 Aug 20:28:33 20:31:27 16° 258° (WSW) 20:34:24 145.822/145.860
PRISM 28 Aug 20:29:57 20:34:07 82° 281° (W) 20:38:17 437.425
SRMSAT 28 Aug 20:32:28 20:38:21 67° 201° (SSW) 20:44:18 437.500
UWE-3 28 Aug 20:34:42 20:39:24 88° 264° (W) 20:44:01 435.000/436.395/437.385
SEEDS 28 Aug 20:34:59 20:38:07 21° 258° (WSW) 20:41:14 437.485
CUBEBUG 2 28 Aug 20:39:00 20:43:35 47° 258° (WSW) 20:48:06 437.445
JUGNU 28 Aug 20:45:31 20:49:31 19° 195° (SSW) 20:53:32 437.505
ZACube-1 28 Aug 20:47:23 20:51:58 78° 80° (E) 20:56:29 437.345
HO-68 28 Aug 20:48:23 20:53:50 24° 255° (WSW) 20:59:19 435.675
DELFI C3 28 Aug 20:59:08 21:02:42 32° 78° (ENE) 21:06:13 145.870
AIST 1 28 Aug 21:00:30 21:03:31 18° 266° (W) 21:06:32
PCSat 28 Aug 21:02:01 21:06:34 28° 71° (ENE) 21:11:07 145.827
AAUSAT CUBESAT 2 28 Aug 21:03:55 21:06:38 17° 258° (WSW) 21:09:19 437.432
TIGRISAT 28 Aug 21:08:15 21:10:33 14° 102° (ESE) 21:12:52 435.000
PHONESAT 2.4 28 Aug 21:19:50 21:22:48 56° 317° (NW) 21:25:45 2401.200-2431.200
HUMSAT D 28 Aug 21:26:24 21:30:15 33° 79° (ENE) 21:34:01 437.325/437.525
UNISAT 6 28 Aug 21:35:28 21:39:27 40° 102° (ESE) 21:43:29 437.425
SO-50 28 Aug 21:40:17 21:44:57 49° 292° (WNW) 21:49:38 436.795
Oscar 11 28 Aug 21:55:39 21:57:14 12° 258° (WSW) 21:58:50 145.826/435.025
CUSAT 1 28 Aug 22:02:22 22:04:49 34° 96° (E) 22:07:14 437.405
FUNcube-1 28 Aug 22:05:03 22:05:55 10° 257° (WSW) 22:06:46 145.935
AIST 2 28 Aug 22:06:36 22:10:45 76° 249° (WSW) 22:14:55 435.215
ANTELSAT 28 Aug 22:12:10 22:16:20 56° 282° (WNW) 22:20:33 437.575/2403.000
RS-15 28 Aug 22:18:59 22:28:44 36° 111° (ESE) 22:38:46 29.354- 29.394
GONETS M04 28 Aug 22:22:48 22:30:57 42° 87° (E) 22:39:03
ESTCUBE 1 28 Aug 22:22:51 22:26:10 21° 78° (ENE) 22:29:29 437.505/2401.250
SRMSAT 28 Aug 22:22:51 22:27:44 26° 197° (SSW) 22:32:39 437.500
AISAT 28 Aug 22:29:12 22:30:22 11° 78° (ENE) 22:31:34 437.250
DUCHIFAT 1 28 Aug 22:34:55 22:37:46 18° 102° (ESE) 22:40:37 145.980
QB50P2 28 Aug 22:38:21 22:41:52 26° 102° (ESE) 22:45:24 145.880/145.840
JUGNU 28 Aug 22:38:22 22:39:26 10° 186° (S) 22:40:30 437.505
POLYITAN 1 28 Aug 22:40:51 22:44:22 27° 102° (ESE) 22:47:55 437.675
TIGRISAT 28 Aug 22:43:43 22:46:58 22° 282° (WNW) 22:50:16 435.000
PCSat 28 Aug 22:45:56 22:49:41 19° 250° (WSW) 22:53:28 145.827
Cosmos 2499 28 Aug 22:46:53 22:53:40 45° 88° (E) 23:00:53 435.465 / 435.565
NANOSAT C BR1 28 Aug 22:48:21 22:52:03 31° 102° (ESE) 22:55:47 145.865
AUBIESAT-1 28 Aug 22:58:25 23:02:45 70° 254° (WSW) 23:07:18 437.475
M-CUBED/EXP-1 PRIME 28 Aug 23:05:09 23:09:17 43° 255° (WSW) 23:13:39 437.505
50 SAT 28 Aug 23:06:53 23:10:11 35° 79° (E) 23:13:28 437.505
DANDE 28 Aug 23:08:06 23:11:21 68° 275° (W) 23:14:02 436.750
JAS-2 28 Aug 23:10:09 23:17:11 40° 104° (ESE) 23:24:22 435.910
CUBEBUG 1 28 Aug 23:12:38 23:16:56 61° 79° (ENE) 23:21:15 437.445
VELOX 1 28 Aug 23:13:19 23:17:33 46° 78° (ENE) 23:21:47 145.980
BUGSAT 1 28 Aug 23:25:10 23:28:46 31° 102° (ESE) 23:32:20 437.445
SPROUT 28 Aug 23:26:00 23:29:43 28° 78° (ENE) 23:33:25 437.525
DX 1 28 Aug 23:27:13 23:31:21 43° 78° (ENE) 23:35:28 434.975-435.025
QB50P1 28 Aug 23:32:39 23:36:40 48° 282° (WNW) 23:40:42 145.935-145.965
O/OREOS (USA 219) 28 Aug 23:34:30 23:38:36 32° 76° (ENE) 23:42:41 437.305
POPSAT HIP 1 28 Aug 23:42:59 23:46:46 34° 282° (WNW) 23:50:35 437.405
ESTCUBE 1 28 Aug 23:59:45 00:02:42 17° 258° (WSW) 00:05:39 437.505/2401.250
AISAT 29 Aug 00:02:40 00:06:34 31° 258° (WSW) 00:10:29 437.250
UKube-1 29 Aug 00:05:29 00:09:46 69° 257° (WSW) 00:14:04 .
Oscar 19 29 Aug 00:05:56 00:08:42 15° 103° (ESE) 00:11:26 437.125/150
DUCHIFAT 1 29 Aug 00:10:32 00:13:11 17° 282° (WNW) 00:15:51 145.980
SRMSAT 29 Aug 00:14:59 00:17:38 13° 190° (S) 00:20:17 437.500
QB50P2 29 Aug 00:16:06 00:17:25 11° 282° (WNW) 00:18:43 145.880/145.840
POLYITAN 1 29 Aug 00:18:45 00:19:55 11° 282° (WNW) 00:21:04 437.675
GONETS M04 29 Aug 00:20:39 00:27:21 25° 267° (W) 00:34:05
JUGNU 29 Aug 00:28:44 00:29:39 10° 175° (S) 00:30:34 437.505
RS-15 29 Aug 00:30:40 00:40:37 39° 292° (WNW) 00:51:04 29.354- 29.394
Cosmos 2499 29 Aug 00:42:05 00:46:33 17° 265° (W) 00:51:11 435.465 / 435.565
JAS-2 29 Aug 00:55:40 01:01:48 27° 283° (WNW) 01:08:10 435.910
SPROUT 29 Aug 01:04:04 01:05:22 11° 258° (WSW) 01:06:40 437.525
TISAT 1 29 Aug 01:16:18 01:20:24 49° 258° (WSW) 01:24:30 437.305
O/OREOS (USA 219) 29 Aug 01:16:38 01:17:44 11° 255° (WSW) 01:18:50 437.305
SWISSCUBE 29 Aug 01:20:29 01:24:11 23° 78° (ENE) 01:27:51 437.505
Gurwin Techsat 1B 29 Aug 01:22:40 01:27:47 49° 103° (ESE) 01:32:54 435.225
BEESAT 29 Aug 01:36:54 01:41:10 32° 78° (ENE) 01:45:23 436.000
Oscar 19 29 Aug 01:43:06 01:47:43 34° 283° (WNW) 01:52:22 437.125/150
JUGNU 29 Aug 02:15:37 02:19:36 18° 165° (SSE) 02:23:36 437.505
ITUPSAT 1 29 Aug 02:24:38 02:29:20 58° 257° (WSW) 02:34:01 437.325
AO-7 29 Aug 02:25:09 02:32:05 30° 107° (ESE) 02:38:59 29.400- 29.500
SWISSCUBE 29 Aug 02:58:26 03:01:42 18° 257° (WSW) 03:04:57 437.505
ITAMSAT 1 29 Aug 02:59:20 03:04:21 52° 283° (WNW) 03:09:24 435.822/435.867
KKS-1 29 Aug 03:03:00 03:06:47 27° 78° (ENE) 03:10:34 437.445
BEESAT 29 Aug 03:16:39 03:18:39 13° 257° (WSW) 03:20:39 436.000
MOZHAYETS 4 29 Aug 03:16:46 03:21:19 62° 78° (ENE) 03:25:49
AO-85 29 Aug 03:17:59 03:23:16 60° 291° (WNW) 03:28:34 145.980
STARS 29 Aug 03:35:27 03:39:20 30° 78° (ENE) 03:43:12 437.465
SRMSAT 29 Aug 03:55:09 03:58:18 14° 169° (SSE) 04:01:27 437.500
Cosmos 2491 29 Aug 04:00:35 04:06:46 21° 87° (E) 04:12:55 435.465 / 435.565
JUGNU 29 Aug 04:03:23 04:09:01 42° 160° (SSE) 04:14:40 437.505
AO-7 29 Aug 04:17:08 04:24:28 37° 286° (WNW) 04:31:52 29.400- 29.500
HORYU 2 29 Aug 04:37:07 04:41:29 70° 102° (ESE) 04:45:54 437.375
CUBESAT XI-V 29 Aug 04:40:11 04:44:42 57° 78° (ENE) 04:49:11 437.345
KKS-1 29 Aug 04:41:00 04:43:05 13° 257° (WSW) 04:45:10 437.445
YUBILEINY 29 Aug 04:44:26 04:52:42 45° 93° (E) 05:00:56 435.215
GOMX 1 29 Aug 05:00:58 05:03:28 14° 100° (E) 05:05:54 467.674
NOAA 18 29 Aug 05:01:53 05:04:42 14° 104° (ESE) 05:07:31 137.9125
ISS 29 Aug 05:13:33 05:16:45 51° 305° (NW) 05:19:55 145.825
STARS 29 Aug 05:13:59 05:15:24 11° 257° (WSW) 05:16:49 437.465
BRITE-PL 29 Aug 05:28:49 05:34:18 81° 281° (W) 05:39:26 437.365/2234.400
Cubesat XI-IV 29 Aug 05:37:10 05:42:14 45° 103° (ESE) 05:47:19 437.490
SRMSAT 29 Aug 05:42:53 05:48:06 30° 162° (SSE) 05:53:17 437.500
NOAA 15 29 Aug 05:45:22 05:50:40 81° 103° (ESE) 05:55:59 137.62
CUTE-I 29 Aug 05:48:24 05:53:39 64° 103° (ESE) 05:58:56 437.470
JUGNU 29 Aug 05:52:08 05:58:07 71° 339° (NNW) 06:04:06 437.505
LilacSat-2 29 Aug 05:53:23 05:57:08 84° 98° (E) 06:00:57 437.200
Cosmos 2491 29 Aug 05:54:50 06:03:12 48° 267° (W) 06:11:36 435.465 / 435.565
Cosmos 2504 29 Aug 06:03:09 06:11:47 57° 93° (E) 06:19:59 435.465 / 435.565
BEESAT 3 29 Aug 06:20:56 06:22:41 13° 112° (ESE) 06:24:27 437.485
STRAND 1 29 Aug 06:32:01 06:36:48 40° 78° (ENE) 06:41:33 437.568
DOVE 4 29 Aug 06:36:16 06:40:53 85° 279° (W) 06:45:14 437.250
GOMX 1 29 Aug 06:37:02 06:41:21 30° 283° (WNW) 06:45:26 467.674
NOAA 18 29 Aug 06:40:05 06:45:04 38° 283° (WNW) 06:50:05 137.9125
YUBILEINY 29 Aug 06:42:37 06:49:05 23° 273° (W) 06:55:36 435.215
HO-68 29 Aug 06:51:51 06:57:59 32° 105° (ESE) 07:04:08 435.675
SEEDS 29 Aug 07:05:00 07:07:52 18° 102° (ESE) 07:10:43 437.485
CINEMA 3 29 Aug 07:07:06 07:11:05 42° 101° (ESE) 07:15:01 145.822/145.860
CUBEBUG 2 29 Aug 07:19:23 07:19:27 10° 102° (ESE) 07:19:30 437.445
Cubesat XI-IV 29 Aug 07:20:39 07:22:01 11° 283° (WNW) 07:23:24 437.490
CANX-2 29 Aug 07:27:56 07:32:11 78° 100° (E) 07:36:29 2200.000
AIST 1 29 Aug 07:29:24 07:32:45 22° 94° (E) 07:36:06
SRMSAT 29 Aug 07:31:24 07:37:26 80° 158° (SSE) 07:43:25 437.500
AAUSAT CUBESAT 2 29 Aug 07:31:54 07:34:56 19° 102° (ESE) 07:37:58 437.432
CUTE 1.7 + AOD 2 29 Aug 07:33:46 07:38:01 79° 103° (ESE) 07:42:18 437.475
COMPASS 1 29 Aug 07:40:32 07:44:23 36° 102° (ESE) 07:48:16 437.405
BEESAT 2 29 Aug 07:41:00 07:44:54 87° 114° (ESE) 07:48:49 435.950
JUGNU 29 Aug 07:42:18 07:47:19 27° 342° (NNW) 07:52:20 437.505
BEESAT 3 29 Aug 07:57:12 08:00:06 20° 292° (WNW) 08:03:00 437.485
Cosmos 2504 29 Aug 07:59:13 08:04:40 18° 272° (W) 08:09:59 435.465 / 435.565
STRAND 1 29 Aug 08:13:59 08:15:40 12° 257° (WSW) 08:17:22 437.568
SO-50 29 Aug 08:15:07 08:17:29 14° 67° (ENE) 08:19:50 436.795
Oscar 11 29 Aug 08:26:00 08:29:58 36° 102° (ESE) 08:33:57 145.826/435.025
PRISM 29 Aug 08:32:51 08:36:55 74° 258° (WSW) 08:40:58 437.425
FUNcube-1 29 Aug 08:35:16 08:39:12 43° 102° (ESE) 08:43:13 145.935
HO-68 29 Aug 08:39:31 08:45:23 28° 285° (WNW) 08:51:16 435.675
SEEDS 29 Aug 08:40:25 08:43:16 18° 282° (WNW) 08:46:10 437.485
PHONESAT 2.4 29 Aug 08:45:54 08:48:51 68° 42° (NE) 08:51:50 2401.200-2431.200
UWE-3 29 Aug 08:46:14 08:50:17 59° 282° (WNW) 08:54:25 435.000/436.395/437.385
CUBEBUG 2 29 Aug 08:52:16 08:55:48 28° 281° (WNW) 08:59:22 437.445
CUSAT 1 29 Aug 08:55:50 09:01:11 20° 86° (E) 09:06:32 437.405
ZACube-1 29 Aug 08:57:23 09:01:30 75° 283° (WNW) 09:05:44 437.345
DELFI C3 29 Aug 08:57:46 09:01:22 32° 102° (ESE) 09:04:58 145.870
AAUSAT CUBESAT 2 29 Aug 09:07:37 09:10:08 16° 281° (WNW) 09:12:40 437.432
AIST 1 29 Aug 09:08:05 09:10:04 13° 274° (W) 09:12:02
TIGRISAT 29 Aug 09:20:01 09:23:49 25° 78° (ENE) 09:27:34 435.000
SRMSAT 29 Aug 09:21:10 09:26:41 38° 340° (NNW) 09:32:09 437.500
HUMSAT D 29 Aug 09:30:56 09:34:46 38° 102° (ESE) 09:38:40 437.325/437.525
JUGNU 29 Aug 09:34:14 09:37:00 13° 350° (N) 09:39:46 437.505
PCSat 29 Aug 09:37:20 09:42:45 88° 110° (ESE) 09:48:10 145.827
UNISAT 6 29 Aug 09:48:15 09:52:56 67° 79° (ENE) 09:57:32 437.425
SO-50 29 Aug 09:54:06 09:57:41 24° 248° (WSW) 10:01:16 436.795
RS-15 29 Aug 10:01:23 10:11:43 32° 68° (ENE) 10:21:37 29.354- 29.394
DANDE 29 Aug 10:04:10 10:10:40 33° 88° (E) 10:17:51 436.750
AIST 2 29 Aug 10:05:04 10:09:05 59° 292° (WNW) 10:13:05 435.215
POPSAT HIP 1 29 Aug 10:16:19 10:17:30 11° 78° (ENE) 10:18:41 437.405
ANTELSAT 29 Aug 10:25:26 10:29:47 38° 258° (WSW) 10:34:05 437.575/2403.000
CUSAT 1 29 Aug 10:35:15 10:42:52 55° 265° (W) 10:50:32 437.405
ESTCUBE 1 29 Aug 10:36:09 10:40:12 32° 102° (ESE) 10:44:14 437.505/2401.250
AISAT 29 Aug 10:39:19 10:42:01 16° 102° (ESE) 10:44:44 437.250
DUCHIFAT 1 29 Aug 10:39:59 10:43:19 22° 78° (ENE) 10:46:37 145.980
QB50P2 29 Aug 10:44:24 10:48:16 33° 78° (ENE) 10:52:07 145.880/145.840
POLYITAN 1 29 Aug 10:46:53 10:50:47 34° 78° (ENE) 10:54:40 437.675
JAS-2 29 Aug 10:47:55 10:50:10 13° 78° (ENE) 10:52:23 435.910
NANOSAT C BR1 29 Aug 10:53:54 10:57:54 39° 78° (ENE) 11:01:52 145.865
GONETS M04 29 Aug 10:55:48 11:04:30 80° 93° (E) 11:13:15
Cosmos 2499 29 Aug 10:56:04 11:04:42 64° 93° (E) 11:12:45 435.465 / 435.565
50 SAT 29 Aug 10:56:16 10:59:16 24° 102° (ESE) 11:02:16 437.505
TIGRISAT 29 Aug 10:57:18 11:00:12 16° 258° (WSW) 11:03:06 435.000
AUBIESAT-1 29 Aug 10:59:04 11:02:33 67° 286° (WNW) 11:05:54 437.475
M-CUBED/EXP-1 PRIME 29 Aug 11:06:27 11:09:42 35° 286° (WNW) 11:12:49 437.505
SRMSAT 29 Aug 11:12:38 11:16:18 17° 346° (NNW) 11:19:58 437.500
CUBEBUG 1 29 Aug 11:22:39 11:27:02 86° 100° (E) 11:31:25 437.445
VELOX 1 29 Aug 11:24:44 11:29:09 69° 102° (ESE) 11:33:32 145.980
BUGSAT 1 29 Aug 11:27:56 11:31:50 36° 78° (ENE) 11:35:43 437.445
SPROUT 29 Aug 11:33:08 11:37:01 36° 102° (ESE) 11:40:55 437.525
DX 1 29 Aug 11:36:39 11:40:56 61° 102° (ESE) 11:45:14 434.975-435.025
QB50P1 29 Aug 11:38:51 11:42:51 39° 258° (WSW) 11:46:51 145.935-145.965
O/OREOS (USA 219) 29 Aug 11:45:14 11:49:37 55° 104° (ESE) 11:53:58 437.305
DANDE 29 Aug 11:46:32 11:53:07 33° 263° (W) 12:00:24 436.750
POPSAT HIP 1 29 Aug 11:49:18 11:53:01 29° 258° (WSW) 11:56:43 437.405
RS-15 29 Aug 12:12:27 12:23:45 47° 250° (WSW) 12:34:40 29.354- 29.394
UKube-1 29 Aug 12:14:03 12:18:14 51° 282° (WNW) 12:22:26 .
AISAT 29 Aug 12:14:51 12:18:14 22° 282° (WNW) 12:21:36 437.250
ESTCUBE 1 29 Aug 12:15:21 12:16:43 11° 282° (WNW) 12:18:06 437.505/2401.250
DUCHIFAT 1 29 Aug 12:16:25 12:18:44 14° 258° (WSW) 12:21:02 145.980
JAS-2 29 Aug 12:30:17 12:35:04 34° 257° (WSW) 12:39:42 435.910
Oscar 19 29 Aug 12:37:38 12:42:21 37° 78° (ENE) 12:47:03 437.125/150
Cosmos 2499 29 Aug 12:53:01 12:57:15 15° 272° (W) 13:01:24 435.465 / 435.565
ITUPSAT 1 29 Aug 13:11:27 13:13:57 14° 103° (ESE) 13:16:27 437.325
JUGNU 29 Aug 13:14:31 13:17:19 13° 11° (N) 13:20:06 437.505
TISAT 1 29 Aug 13:21:42 13:25:36 40° 282° (WNW) 13:29:30 437.305
SWISSCUBE 29 Aug 13:41:30 13:46:01 43° 103° (ESE) 13:50:33 437.505
ITAMSAT 1 29 Aug 13:55:59 14:00:15 26° 77° (ENE) 14:04:28 435.822/435.867
BEESAT 29 Aug 13:58:14 14:02:56 64° 102° (ESE) 14:07:41 436.000
Gurwin Techsat 1B 29 Aug 14:01:07 14:06:20 57° 257° (WSW) 14:11:32 435.225
Oscar 19 29 Aug 14:19:09 14:21:23 13° 257° (WSW) 14:23:37 437.125/150
ITUPSAT 1 29 Aug 14:47:23 14:51:30 29° 282° (WNW) 14:55:39 437.325
AO-7 29 Aug 14:50:31 14:58:31 50° 74° (ENE) 15:06:27 29.400- 29.500
SRMSAT 29 Aug 14:55:14 14:56:50 11° 7° (N) 14:58:25 437.500
JUGNU 29 Aug 15:01:59 15:06:58 28° 18° (NNE) 15:11:54 437.505
KKS-1 29 Aug 15:15:04 15:19:13 40° 102° (ESE) 15:23:21 437.445
AO-85 29 Aug 15:32:50 15:35:56 24° 248° (WSW) 15:39:05 145.980
MOZHAYETS 4 29 Aug 15:33:16 15:37:51 78° 283° (WNW) 15:42:29
ITAMSAT 1 29 Aug 15:35:45 15:39:26 20° 257° (WSW) 15:43:06 435.822/435.867
STARS 29 Aug 15:46:01 15:50:08 42° 102° (ESE) 15:54:16 437.465
